Погода Остров Врангеля

Погода Остров Врангеля : погода сейчас, прогноз погоды и архив. Всё, что Вы хотите узнать о погоде Остров Врангеля!

Поиск расширенной информации на нашем сайте:

Другие новости

Новости СМИ2

Главная страница сайта

Новости сайта

02.10.2013

Напоминаем, что на нашем новом сайте вы можете получить высокодетализированные прогнозы погоды по пунктам России, СНГ и мира (включающие важные для авиации метеовеличины, такие как направление и скорость ветра, видимость, явления погоды, количество и форма облачности, нижняя и верхняя граница облачности), а также ознакомиться с разнообразными материалами по авиационной метеорологии и подборкой полезных ссылок на эту тему.

Сайт Метеоцентр.Азия посвящён разработке технологий оптимизации авиаметеорологического обслуживания, включая проектирование и перспективное создание нескольких автоматизированных авиаметеорологических систем:
- система выпуска высокодетальных прогностических карт явлений погоды для нижнего воздушного пространства по России и ближнему зарубежью;
- система верификации прогнозов TAF (выпускаемых синоптиками официальных АМСГ РФ и ближнего зарубежья) и AUTOTAF (выпускаемых сайтом Метеоцентр.Азия) - выявление ошибок, онлайн-сопоставление с фактической погодой METAR, автоматическое внесение коррективов в прогнозы при резком отклонении фактической погоды от прогноза, подсчёт оправдываемости прогнозов по элементам и в целом;
- система обработки, анализа и отображения авиаметеорологической информации для применения провайдерами метеорологической информации.


Погода Остров Врангеля - сегодня

Время (UTC), дата Ветер
(°,м/с) 
Видим.   Явления Облачность Т
(°С)
Тd
(°С)
f(%) Тe
(°С)
Pmin
(гПа)
dP
(гПа)
Po
(мм)
O2
(г/м3)
Тmin Tmax R s Состояние
почвы
06 18.02.17 330 (СЗ) 2{04}  4000 м  слаб. ливневой снег  6/4 300 м кучево-дожд., средняя, верхняя 
[Cb cap|Ac trans|Ci fib]
-21.8 -24.8 77 -25  1018.7  0.8  762  335    -19.9  0.2     
09 18.02.17 330 (СЗ) 1{04}  4000 м  слаб. ливневой снег  8/6 300 м кучево-дожд., средняя 
[Cb cap|Ac trans]
-20.5 -23 80 -21  1019.1  0.4  762  334           
12 18.02.17 330 (СЗ) 4{04}  4000 м  слаб. снег{ливн. осадки}  10/6 600 м средняя 
[Sc|As op]
-20.9 -23.9 77 -27  1019.5  0.4  762  334           
15 18.02.17 010 (С) 1{04}  4000 м  слаб. снег  10/3 600 м средняя 
[Sc|As op]
-20.5 -23.4 78 -21  1019.7  0.2  763  334           
18 18.02.17 020 (С) 2{04}  4000 м  слаб. снег  10/3 600 м средняя 
[Sc|As op]
-20.4 -23.2 78 -23  1019.6  -0.1  763  334  -22.5    0.4  равномерный
сухой снег
100% 
21 18.02.17 330 (СЗ) 2{03}  4000 м  слаб. ливневой снег  9/5 600 м кучево-дожд., средняя, верхняя 
[Cb cap|Ac trans|Ci fib]
-20.4 -23.6 76 -23  1020.1  0.5  763  334  -22.6         
00 19.02.17 350 (С) 2{04}  20000 м  {ливн. осадки}  9/0 средняя, верхняя 
[Ac trans|Ci fib]
-21.1 -24.6 73 -24  1020.1  763  335           
03 19.02.17 320 (СЗ) 2{03}  20000 м    10/0 средняя, верхняя 
[Ac trans|Cs]
-21.3 -24.4 76 -24  1019.9  -0.2  763  335           
06 19.02.17 330 (СЗ) 4{05}  4000 м  слаб. ливневой снег  8/5 600 м кучево-дожд., средняя, верхняя 
[Cb cap|Ac trans|Ci fib]
-22.3 -25.8 73 -28  1020.1  0.2  763  337    -20.2  0.3     
09 19.02.17 330 (СЗ) 4{06}  20000 м  {ливн. осадки}  3/0 средняя 
[Ac trans]
-22.6 -26.4 71 -28  1020.3  0.2  763  337           
12 19.02.17 330 (СЗ) 3{05}  20000 м  {ливн. осадки}  3/0 средняя 
[Ac trans]
-23.2 -27.2 70 -28  1020.5  0.2  763  338           
15 19.02.17 340 (С) 2{05}  20000 м    1/0 средняя 
[Ac trans]
-24.1 -27.3 75 -27  1020.4  -0.1  763  339           
18 19.02.17 320 (СЗ) 3{05}  20000 м    3/0 средняя, верхняя 
[Ac trans|Ci fib]
-23.9 -27.4 73 -29  1020.7  0.3  763  339  -25.4    0.0  равномерный
сухой снег
100% 
21 19.02.17 330 (СЗ) 3{05}  20000 м    3/0 средняя, верхняя 
[Ac trans|Ci fib]
-23.6 -27.4 71 -28  1021.3  0.6  764  339           
00 20.02.17 350 (С) 2{04}  20000 м    3/0 верхняя 
[Ci fib]
-22.5 -27.9 61 -25  1021.7  0.4  764  337           
03 20.02.17 310 (СЗ) 1{03}  20000 м    3/0 верхняя 
[Ci fib]
-22.1 -28.3 57 -22  1022.1  0.4  764  337           
06 20.02.17 340 (С) 2{04}  20000 м    3/0 верхняя 
[Ci fib]
-22.4 -27.2 65 -25  1022.4  0.2  765  337    -21.1       
09 20.02.17 330 (СЗ) 3{04}  20000 м    3/0 верхняя 
[Ci fib]
-24.6 -28.8 68 -30  1023.2  0.8  765  341           
12 20.02.17 330 (СЗ) 4{04}  20000 м    3/0 верхняя 
[Ci fib]
-23.6 -28.1 66 -30  1023.2  765  339           
15 20.02.17 330 (СЗ) 6{07}  20000 м    3/0 верхняя 
[Ci fib]
-24 -28.4 67 -32  1023.4  0.2  765  340           
18 20.02.17 330 (СЗ) 5{07}  20000 м    3/0 верхняя 
[Ci fib]
-23.6 -27.9 68 -31  1023.8  0.4  766  340  -25.2      равномерный
сухой снег
100% 
21 20.02.17 340 (С) 5{08}  20000 м    8/0 средняя, верхняя 
[Ac lent|Ci fib]
-21.6 -25.9 68 -28  1024.5  0.8  766  337           
00 21.02.17 330 (СЗ) 8-10{11}  20000 м  позёмок  9/0 средняя, верхняя 
[Ac lent|Ci fib]
-21.7 -26.4 66 -31  1025.1  0.6  767  337           
03 21.02.17 330 (СЗ) 11-13{13}  20000 м  позёмок  9/4 600 м средняя, верхняя 
[Sc|Ac lent|Ci fib]
-20.9 -25.4 67 -31  1025.5  0.4  767  336           
06 21.02.17 330 (СЗ) 12-15{15}  20000 м  позёмок  9/6 600 м средняя, верхняя 
[Sc|Ac lent|Ci fib]
-20.8 -24.8 70 -32  1025.7  0.1  767  336    -20.8       
Время (UTC), дата Ветер
(°,м/с) 
Видим.   Явления Облачность Т
(°С)
Тd
(°С)
f(%) Тe
(°С)
Pmin
(гПа)
dP
(гПа)
Po
(мм)
O2
(г/м3)
Тmin Tmax R s Состояние
почвы

Для получения пояснительной информации подведите курсор к названию столбца.

ПОГОДА Остров Врангеля - архив

Всё, что Вы хотите узнать о погоде Остров Врангеля - удобно и подробно!

Выберите нужную дату (начиная с 1 января 2015* года) и нажмите кнопку "Найти".
Будут отображены архивные сводки погоды по пункту Остров Врангеля, начиная с указанной даты.


Отображать данные в формате CSV (для использования в таблицах Excel)


Внимание! Наш архив погоды предназначен исключительно для личного некоммерческого использования в познавательных целях. Если Вам необходимы официальные справки о состоянии погоды (для производственных, юридических, коммерческих и т.п. целей), обращайтесь в органы Росгидромета.

*Примечание: данная дата относится к архиву по метеостанциям СССР (Россия, СНГ, Балтия).
Архив по метеостанциям Зарубежной Европы и Азии (кроме Китая) хранится 10 дней, по другим регионам земного шара (Китай, Африка, Америка, Австралия, Океания) - 1 день.

Остров Врангеля - район местоположения метеостанции


Название, широта, долгота, высота метеостанции:
Остров Врангеля 71°ш. -178.5°д. 5 м над ур. моря [Российская Федерация]

Дополнительная информация

В oтличие oт бoльшинства пoгoдных сайтoв мы публикуем пoдрoбную метеoинфoрмацию в детальнoм прoфессиoнальнoм фoрмате.

Характеристики температуры и влажнoсти вoздуха измеряются на высoте 2 м в тени вдали oт зданий и деревьев.
Скoрoсть ветра измеряется на высoте 10 м (на урoвне рoста челoвека скoрoсть ветра ниже в 1.5-2 раза). Если метеoстанция нахoдится в гoрoде или в лесу, тo скoрoсть ветра занижена на 2-4 м/с пo сравнению с oткрытым местoм. Скoрoсть ветра над акватoриями крупных рек и oзёр, а также на вершинах хoлмoв на 2-5 м/с выше, чем в oбычных услoвиях.
Атмoсфернoе давление в разных тoчках местнoсти мoжет значительнo oтличаться oт давления на метеoстанции, в зависимoсти oт услoвий рельефа (при пoдъёме на 10 м давление пoнижается примернo на 1 мм рт.ст.).